Weather History for Frankfort, MI

Change the Weather History Date:

Friday, May 10, 2013

  Actual Average (KTVC) Record (KTVC)
Temperature  
Mean Temperature 42 °F 52 °F  
Max Temperature 44 °F 64 °F 89 °F (1993)
Min Temperature 40 °F 39 °F 22 °F (1966)
Degree Days  
Heating Degree Days 23 14  
Month to date heating degree days 152  
Since 1 July heating degree days 7219  
Cooling Degree Days 0 0  
Month to date cooling degree days 0  
Year to date cooling degree days 3  
Moisture  
Dew Point 39 °F    
Average Humidity 88    
Maximum Humidity 93    
Minimum Humidity 82    
Precipitation  
Precipitation 0.00 in 0.09 in 1.64 in (1963)
Month to date precipitation 0.82  
Year to date precipitation 9.78  
Sea Level Pressure  
Sea Level Pressure 29.95 in    
Wind  
Wind Speed 8 mph (NNE)    
Max Wind Speed 14 mph    
Max Gust Speed 23 mph    
Visibility 10 miles    
Events Rain    
T = Trace of Precipitation, MM = Missing Value Source: NWS Daily Summary

Daily Weather History Graph

Daily Weather History Graph

Search for Another Location

Airport:

Trip Planner

Search our weather history database for the weather conditions in past years. The results will help you decide how hot, cold, wet, or windy it might be!

Date:

Astronomy

May. 10, 2013 Rise Set
Actual Time 6:22 AM EDT 9:00 PM EDT
Civil Twilight 5:49 AM EDT 9:34 PM EDT
Nautical Twilight 5:07 AM EDT 10:16 PM EDT
Astronomical Twilight 4:19 AM EDT 11:04 PM EDT
Moon 6:46 AM EDT (5/10) 9:50 PM EDT (5/10)
Length of Visible Light 15h 44m
Length of Day
14h 38m
New Moon, 0% of the Moon is Illuminated
May 10
New Moon
May 18
First Quarter
May 25
Full
May 31
Last Quarter
Jun 8
New

Hourly Weather History & Observations

Time (EDT) Temp. Windchill Dew Point Humidity Pressure Visibility Wind Dir Wind Speed Gust Speed Precip Events Conditions
12:16 AM 42.1 °F 34.9 °F 39.6 °F 91% 30.00 in 10.0 mi NNE 13.8 mph 19.6 mph N/A Rain Light Rain
12:36 AM 41.9 °F 35.4 °F 39.6 °F 91% 29.99 in 10.0 mi NE 11.5 mph 23.0 mph N/A Rain Rain
1:16 AM 41.9 °F 35.4 °F 39.7 °F 92% 29.97 in 10.0 mi NNE 11.5 mph 20.7 mph N/A Rain Light Rain
1:57 AM 42.1 °F 36.6 °F 40.1 °F 93% 29.96 in 10.0 mi NNE 9.2 mph 17.3 mph N/A Rain Light Rain
2:12 AM 42.3 °F 38.6 °F 40.1 °F 92% 29.95 in 10.0 mi NNE 5.8 mph 17.3 mph N/A Rain Rain
2:32 AM 42.8 °F 38.0 °F 40.6 °F 92% 29.95 in 10.0 mi NE 8.1 mph - N/A Rain Rain
2:52 AM 43.2 °F 37.9 °F 41.0 °F 92% 29.94 in 10.0 mi NNE 9.2 mph - N/A Rain Rain
3:12 AM 43.2 °F 39.0 °F 41.0 °F 92% 29.93 in 10.0 mi NE 6.9 mph - N/A Rain Light Rain
3:32 AM 43.2 °F 38.4 °F 41.0 °F 92% 29.93 in 10.0 mi NE 8.1 mph - N/A Rain Rain
3:52 AM 43.2 °F 39.7 °F 41.0 °F 92% 29.92 in 10.0 mi NNE 5.8 mph - N/A Rain Rain
4:12 AM 43.7 °F 40.3 °F 41.5 °F 92% 29.92 in 10.0 mi NE 5.8 mph - N/A Rain Light Rain
4:33 AM 43.9 °F 39.3 °F 41.9 °F 93% 29.92 in 10.0 mi NE 8.1 mph - N/A Rain Rain
4:53 AM 44.1 °F 40.1 °F 41.9 °F 92% 29.92 in 7.0 mi North 6.9 mph - N/A Rain Rain
5:13 AM 44.1 °F 40.8 °F 41.9 °F 92% 29.92 in 10.0 mi NNE 5.8 mph - N/A Rain Rain
5:33 AM 43.7 °F 41.1 °F 41.5 °F 92% 29.92 in 7.0 mi North 4.6 mph - N/A Rain Rain
5:53 AM 43.7 °F 39.7 °F 41.4 °F 91% 29.92 in 7.0 mi NE 6.9 mph - N/A Rain Rain
6:13 AM 43.7 °F 40.3 °F 41.4 °F 91% 29.91 in 10.0 mi NE 5.8 mph - N/A Rain Light Rain
6:33 AM 43.2 °F 38.4 °F 41.0 °F 92% 29.91 in 10.0 mi NNE 8.1 mph - N/A Rain Light Rain
6:53 AM 43.0 °F 38.8 °F 40.6 °F 91% 29.92 in 10.0 mi NNE 6.9 mph - N/A Rain Light Rain
7:16 AM 42.4 °F 38.8 °F 40.1 °F 91% 29.93 in 10.0 mi NNE 5.8 mph - N/A Rain Light Rain
7:36 AM 42.3 °F 36.8 °F 39.7 °F 91% 29.93 in 10.0 mi NNE 9.2 mph - N/A Rain Rain
8:16 AM 41.5 °F 35.9 °F 39.4 °F 92% 29.93 in 7.0 mi NNE 9.2 mph - N/A Rain Rain
8:36 AM 41.9 °F 36.9 °F 39.6 °F 91% 29.94 in 10.0 mi NNE 8.1 mph - N/A Rain Rain
9:16 AM 41.9 °F 37.5 °F 39.6 °F 91% 29.94 in 10.0 mi NE 6.9 mph - N/A Rain Light Rain
9:36 AM 41.9 °F 38.2 °F 39.2 °F 90% 29.94 in 10.0 mi NNE 5.8 mph 18.4 mph N/A Rain Light Rain
9:57 AM 41.7 °F 38.0 °F 39.2 °F 91% 29.94 in 10.0 mi NNE 5.8 mph - N/A Rain Light Rain
10:17 AM 41.0 °F 36.4 °F 38.7 °F 91% 29.95 in 10.0 mi North 6.9 mph - N/A Rain Light Rain
10:32 AM 40.8 °F 35.6 °F 38.5 °F 91% 29.95 in 10.0 mi NNE 8.1 mph - N/A Rain Light Rain
10:52 AM 41.0 °F 36.4 °F 38.7 °F 91% 29.94 in 10.0 mi North 6.9 mph - N/A Rain Light Rain
11:12 AM 41.0 °F 35.8 °F 38.5 °F 91% 29.95 in 10.0 mi NNE 8.1 mph - N/A   Light Drizzle
11:32 AM 41.0 °F 34.7 °F 38.5 °F 91% 29.95 in 10.0 mi NNE 10.4 mph - N/A   Overcast
11:52 AM 40.3 °F 33.9 °F 37.8 °F 91% 29.95 in 10.0 mi NNE 10.4 mph 16.1 mph N/A   Light Drizzle
12:12 PM 40.5 °F 35.8 °F 37.9 °F 91% 29.95 in 10.0 mi North 6.9 mph - N/A   Light Drizzle
12:32 PM 40.3 °F 35.5 °F 37.6 °F 90% 29.96 in 10.0 mi NNE 6.9 mph - N/A   Overcast
12:53 PM 40.5 °F 35.1 °F 37.6 °F 89% 29.96 in 10.0 mi NNE 8.1 mph 18.4 mph N/A   Overcast
1:13 PM 40.3 °F 34.4 °F 37.4 °F 89% 29.96 in 10.0 mi NNE 9.2 mph - N/A   Overcast
1:33 PM 40.6 °F 34.3 °F 37.6 °F 89% 29.96 in 10.0 mi NNE 10.4 mph 17.3 mph N/A Rain Light Rain
1:53 PM 41.4 °F 36.2 °F 38.3 °F 89% 29.96 in 10.0 mi NNE 8.1 mph - N/A   Light Drizzle
2:13 PM 41.4 °F 36.2 °F 38.1 °F 88% 29.96 in 10.0 mi NE 8.1 mph 19.6 mph N/A   Overcast
2:33 PM 41.4 °F 35.2 °F 37.9 °F 88% 29.96 in 10.0 mi NNE 10.4 mph 16.1 mph N/A   Overcast
2:53 PM 40.5 °F 34.1 °F 37.2 °F 88% 29.96 in 10.0 mi North 10.4 mph 19.6 mph N/A   Overcast
3:13 PM 40.1 °F 34.1 °F 36.9 °F 88% 29.96 in 10.0 mi NNE 9.2 mph 17.3 mph N/A   Overcast
3:33 PM 40.3 °F 34.9 °F 36.9 °F 88% 29.96 in 10.0 mi NE 8.1 mph 18.4 mph N/A   Overcast
3:53 PM 41.2 °F 37.3 °F 37.0 °F 85% 29.96 in 10.0 mi NNE 5.8 mph - N/A   Overcast
4:14 PM 41.5 °F 37.8 °F 37.4 °F 85% 29.96 in 10.0 mi North 5.8 mph - N/A   Overcast
4:34 PM 42.1 °F 37.7 °F 37.4 °F 83% 29.95 in 10.0 mi North 6.9 mph - N/A   Overcast
4:54 PM 41.9 °F 37.5 °F 37.4 °F 84% 29.95 in 10.0 mi North 6.9 mph - N/A   Overcast
5:14 PM 42.1 °F 38.4 °F 37.0 °F 82% 29.96 in 10.0 mi North 5.8 mph - N/A   Overcast
5:34 PM 41.5 °F 39.6 °F 36.7 °F 83% 29.96 in 10.0 mi North 3.5 mph - N/A   Overcast
5:54 PM 41.5 °F 39.6 °F 37.0 °F 84% 29.96 in 10.0 mi North 3.5 mph - N/A   Overcast
6:14 PM 41.0 °F 36.4 °F 36.7 °F 85% 29.96 in 10.0 mi NNE 6.9 mph 16.1 mph N/A   Overcast
6:34 PM 41.2 °F 36.0 °F 36.5 °F 83% 29.96 in 10.0 mi NNE 8.1 mph - N/A   Overcast
6:54 PM 41.2 °F 37.3 °F 36.5 °F 83% 29.96 in 10.0 mi NNE 5.8 mph - N/A   Overcast
7:15 PM 41.2 °F 37.3 °F 36.3 °F 83% 29.95 in 10.0 mi NNE 5.8 mph - N/A   Overcast
7:35 PM 41.9 °F 37.5 °F 36.7 °F 82% 29.95 in 10.0 mi NNE 6.9 mph - N/A   Overcast
7:55 PM 41.5 °F - 36.5 °F 82% 29.94 in 10.0 mi Calm Calm - N/A   Overcast
8:15 PM 41.5 °F - 36.5 °F 82% 29.94 in 10.0 mi Calm Calm - N/A   Overcast
8:35 PM 41.2 °F 39.2 °F 36.5 °F 83% 29.94 in 10.0 mi ENE 3.5 mph - N/A   Overcast
8:55 PM 41.4 °F - 36.7 °F 83% 29.95 in 10.0 mi Calm Calm - N/A   Overcast
9:15 PM 41.5 °F 39.6 °F 36.9 °F 83% 29.94 in 10.0 mi NE 3.5 mph - N/A   Overcast
9:35 PM 41.9 °F - 37.0 °F 83% 29.95 in 10.0 mi Calm Calm - N/A   Overcast
9:55 PM 41.9 °F - 37.4 °F 84% 29.95 in 10.0 mi Calm Calm - N/A   Overcast
10:16 PM 42.1 °F - 37.4 °F 83% 29.95 in 10.0 mi Calm Calm - N/A   Overcast
10:36 PM 42.1 °F - 37.0 °F 82% 29.95 in 10.0 mi Calm Calm - N/A   Overcast
10:56 PM 42.1 °F - 37.4 °F 83% 29.96 in 10.0 mi Calm Calm - N/A   Overcast
11:16 PM 41.9 °F - 37.0 °F 83% 29.95 in 10.0 mi Calm Calm - N/A   Overcast
11:36 PM 41.9 °F - 37.0 °F 83% 29.95 in 10.0 mi Calm Calm - N/A   Overcast
11:56 PM 41.2 °F - 36.9 °F 85% 29.94 in 10.0 mi Calm Calm - N/A   Scattered Clouds